Le nostre stazioni meteo in Italia

Pubblicità
Il mio iltempo24.it
Monte Scuro, Italia (16344): Temperatura & dewpoint: 13.04.2019 17:00:00 - 19.04.2019 17:00:00 (CEST)Monte Scuro, Italia (16344): velocità del vento: 13.04.2019 17:00:00 - 19.04.2019 17:00:00 (CEST)Monte Scuro, Italia (16344): direzione del vento: 13.04.2019 17:00:00 - 19.04.2019 17:00:00 (CEST)Monte Scuro, Italia (16344): visibility: 13.04.2019 17:00:00 - 19.04.2019 17:00:00 (CEST)Monte Scuro, Italia (16344): ore di luce: 13.04.2019 17:00:00 - 19.04.2019 17:00:00 (CEST)
Data & Tempo tt [°C] td [°C] ff [km/h] ff [kn] dd vv [km] sd [min]
19.04.2019 17:00:00 7,4 3,1 15 8 NE 20 42
19.04.2019 16:00:00 7,4 3,1 15 8 NE 20 12
19.04.2019 15:00:00 7,8 2,7 22 12 NE 20 24
19.04.2019 14:00:00 8,6 2,2 22 12 NE 25 60
19.04.2019 13:00:00 8,0 1,6 15 8 ENE 25 60
19.04.2019 12:00:00 7,8 1,2 15 8 NE 25 60
19.04.2019 11:00:00 7,0 0,2 18 10 NE 25 60
19.04.2019 10:00:00 6,2 1,1 22 12 NE 20 60
19.04.2019 09:00:00 5,2 1,0 22 12 NE 25 60
19.04.2019 08:00:00 4,4 -0,2 18 10 NE 20 60
19.04.2019 07:00:00 3,2 -0,8 22 12 NE 20 -
19.04.2019 06:00:00 2,6 0,5 15 8 NE 10 -
19.04.2019 05:00:00 2,8 0,2 15 8 NE 10 -
19.04.2019 04:00:00 2,8 1,2 18 10 NE 10 -
19.04.2019 03:00:00 2,8 2,2 22 12 NE 10 -
19.04.2019 02:00:00 2,8 2,5 22 12 NE 10 -
19.04.2019 01:00:00 3,0 2,7 24 13 NE 10 -
19.04.2019 00:00:00 3,4 3,1 24 13 NE 10 -
18.04.2019 23:00:00 4,0 3,6 24 13 NE 10 -
18.04.2019 22:00:00 4,4 4,4 22 12 NE 10 -
18.04.2019 21:00:00 4,4 4,4 18 10 NNE 10 -
18.04.2019 20:00:00 5,0 5,0 15 8 NNE 15 -
18.04.2019 19:00:00 5,6 5,3 18 10 NNE 15 0
18.04.2019 18:00:00 6,8 3,6 15 8 NNE 20 48
18.04.2019 17:00:00 8,0 -2,9 9 5 NNE 20 60
18.04.2019 16:00:00 8,2 -4,6 11 6 NNE 20 60
18.04.2019 15:00:00 8,8 -3,1 13 7 NNE 20 42
18.04.2019 14:00:00 9,4 -4,2 4 2 NNE 20 60
18.04.2019 13:00:00 8,4 -5,8 4 2 NNE 20 60
18.04.2019 12:00:00 8,8 -5,8 5 3 NNE 25 60
18.04.2019 11:00:00 7,2 -6,5 11 6 NE 25 60
18.04.2019 10:00:00 7,0 -7,8 18 10 NNE 25 60
18.04.2019 09:00:00 5,2 -12,3 22 12 N 25 60
18.04.2019 08:00:00 5,0 -6,0 18 10 N 20 60
18.04.2019 07:00:00 3,4 -1,4 18 10 NNE 20 -
18.04.2019 06:00:00 3,0 -0,5 9 5 O 15 -
18.04.2019 05:00:00 3,0 2,4 9 5 O 10 -
18.04.2019 04:00:00 3,2 2,8 15 8 O 10 -
18.04.2019 03:00:00 3,4 3,4 11 6 O 10 -
18.04.2019 02:00:00 4,0 4,0 16 9 OSO 10 -
18.04.2019 01:00:00 4,0 4,0 16 9 ONO 10 -
18.04.2019 00:00:00 4,4 4,4 18 10 N 10 -
17.04.2019 23:00:00 4,4 4,3 16 9 O 10 -
17.04.2019 22:00:00 5,0 3,2 18 10 O 10 -
17.04.2019 21:00:00 4,8 2,7 16 9 O 10 -
17.04.2019 20:00:00 4,8 4,4 15 8 O - -
17.04.2019 19:00:00 5,4 4,7 15 8 O - 0
17.04.2019 18:00:00 5,8 5,5 15 8 OSO - 0
17.04.2019 17:00:00 6,0 6,0 16 9 OSO - 0
17.04.2019 16:00:00 6,8 6,8 16 9 N - 0
17.04.2019 15:00:00 7,0 6,4 15 8 O 10 12
17.04.2019 14:00:00 7,4 6,0 16 9 OSO 10 0
17.04.2019 13:00:00 8,0 4,9 16 9 OSO 10 18
17.04.2019 12:00:00 7,0 4,3 11 6 O 15 18
17.04.2019 11:00:00 7,6 3,8 9 5 O 20 36
17.04.2019 10:00:00 7,2 3,1 11 6 O 25 54
17.04.2019 09:00:00 6,0 1,5 11 6 O 25 24
17.04.2019 08:00:00 5,0 0,0 9 5 O 20 0
17.04.2019 07:00:00 5,0 1,3 15 8 OSO 20 0
17.04.2019 06:00:00 5,0 -1,0 11 6 O 10 -
17.04.2019 05:00:00 5,0 -1,0 13 7 O 10 -
17.04.2019 04:00:00 5,0 -3,8 9 5 O 10 -
17.04.2019 03:00:00 4,2 0,2 9 5 O 10 -
17.04.2019 02:00:00 4,2 -0,8 11 6 O 10 -
17.04.2019 01:00:00 4,2 1,4 11 6 OSO 10 -
17.04.2019 00:00:00 4,0 3,7 13 7 O 10 -
16.04.2019 23:00:00 4,0 4,0 11 6 O 10 -
16.04.2019 22:00:00 4,8 3,3 9 5 O 10 -
16.04.2019 21:00:00 5,0 4,3 11 6 O 10 -
16.04.2019 20:00:00 5,0 5,0 15 8 O 15 -
16.04.2019 19:00:00 5,8 5,8 15 8 O 25 0
16.04.2019 18:00:00 6,2 5,5 11 6 O - 0
16.04.2019 17:00:00 7,0 5,5 11 6 O 20 6
16.04.2019 16:00:00 7,0 4,3 9 5 O 25 18
16.04.2019 15:00:00 8,0 3,3 8 4 O 25 30
16.04.2019 14:00:00 7,0 3,1 13 7 OSO 25 60
16.04.2019 13:00:00 7,0 4,7 8 4 O 20 60
16.04.2019 12:00:00 7,0 5,2 8 4 O 20 30
16.04.2019 11:00:00 6,0 2,8 9 5 O 20 0
16.04.2019 10:00:00 5,2 4,2 9 5 N 25 60
16.04.2019 09:00:00 4,8 3,9 9 5 N 25 60
16.04.2019 08:00:00 4,0 3,3 15 8 NE 20 6
16.04.2019 07:00:00 2,2 1,3 11 6 NE 15 12
16.04.2019 06:00:00 1,4 0,7 15 8 NE 4,0 -
16.04.2019 05:00:00 1,4 1,0 11 6 NNE - -
16.04.2019 04:00:00 1,8 1,2 13 7 NE - -
16.04.2019 03:00:00 2,0 -30,0 16 9 NE - -
16.04.2019 02:00:00 1,8 1,4 22 12 NNE - -
16.04.2019 01:00:00 2,0 1,4 28 15 NNE - -
16.04.2019 00:00:00 2,0 1,6 29 16 NE - -
15.04.2019 23:00:00 2,0 1,4 28 15 NE - -
15.04.2019 22:00:00 1,6 1,2 29 16 NNE - -
15.04.2019 21:00:00 1,4 1,0 31 17 NE - -
15.04.2019 20:00:00 1,6 1,3 29 16 NE - -
15.04.2019 19:00:00 2,0 1,6 28 15 NE - 0
15.04.2019 18:00:00 2,0 1,7 26 14 NNE - 0
15.04.2019 17:00:00 2,4 2,1 24 13 NNE 10 0
15.04.2019 16:00:00 3,2 1,9 22 12 NE 20 24
15.04.2019 15:00:00 3,4 1,3 18 10 NE 20 54
15.04.2019 14:00:00 3,4 1,1 16 9 NE 20 54
15.04.2019 13:00:00 2,4 1,5 11 6 NNE 20 60
15.04.2019 12:00:00 3,2 1,7 11 6 NNE 15 6
15.04.2019 11:00:00 3,0 2,7 11 6 NNE 15 0
15.04.2019 10:00:00 2,6 2,3 8 4 O 0,2 0
15.04.2019 09:00:00 4,0 3,1 5 3 O 10 0
15.04.2019 08:00:00 3,0 0,9 4 2 O 15 0
15.04.2019 07:00:00 1,6 -3,3 0 0 N 15 -
15.04.2019 06:00:00 1,4 0,5 4 2 O 10 -
15.04.2019 05:00:00 1,4 1,0 8 4 O 10 -
15.04.2019 04:00:00 1,4 0,8 11 6 O 10 -
15.04.2019 03:00:00 1,4 1,0 8 4 O 10 -
15.04.2019 02:00:00 2,0 1,9 15 8 O - -
15.04.2019 01:00:00 2,0 1,7 15 8 O - -
15.04.2019 00:00:00 2,2 1,9 15 8 O - -
14.04.2019 23:00:00 2,2 2,1 15 8 O - -
14.04.2019 22:00:00 2,2 1,9 16 9 O - -
14.04.2019 21:00:00 2,2 2,1 16 9 O - -
14.04.2019 20:00:00 2,2 2,1 16 9 O - 0
14.04.2019 19:00:00 2,2 1,9 16 9 O - 0
14.04.2019 18:00:00 1,8 1,7 18 10 O - 0
14.04.2019 17:00:00 1,8 1,7 18 10 O - 0
14.04.2019 16:00:00 3,2 2,9 22 12 O - 0
14.04.2019 15:00:00 3,0 2,7 11 6 O - 0
14.04.2019 14:00:00 3,4 3,3 8 4 O - 0
14.04.2019 13:00:00 3,2 2,9 5 3 O - 0
14.04.2019 12:00:00 3,0 2,7 4 2 O - 0
14.04.2019 11:00:00 2,8 2,5 11 6 O - 0
14.04.2019 10:00:00 3,0 2,1 13 7 O - 0
14.04.2019 09:00:00 3,2 2,3 15 8 OSO - 6
14.04.2019 08:00:00 4,4 3,1 13 7 O 10 12
14.04.2019 07:00:00 2,0 1,4 13 7 O - -
14.04.2019 06:00:00 2,0 1,4 15 8 O - -
14.04.2019 05:00:00 2,0 1,3 11 6 O - -
14.04.2019 04:00:00 1,8 1,2 11 6 OSO - -
14.04.2019 03:00:00 1,8 1,2 11 6 O - -
14.04.2019 02:00:00 1,4 0,8 11 6 OSO - -
14.04.2019 01:00:00 2,0 1,4 11 6 OSO - -
14.04.2019 00:00:00 2,0 1,4 13 7 SO - -
13.04.2019 23:00:00 2,2 1,6 15 8 O - -
13.04.2019 22:00:00 2,6 1,7 15 8 O - -
13.04.2019 21:00:00 3,0 2,3 11 6 OSO - -
13.04.2019 20:00:00 3,0 2,3 18 10 O - 0
13.04.2019 19:00:00 2,8 2,1 9 5 O - 0
13.04.2019 18:00:00 3,2 2,5 16 9 OSO - 0
13.04.2019 17:00:00 3,2 2,5 9 5 O - 0

tt = Temperatura
td = dewpoint
ff = velocità del vento
dd = direzione del vento
vv = visibility
sd = ore di luce

Stazioni seguenti

WeatherPro
AMSI
MeteoEarth